Location: Palomar Mountain Lodge
(33.3110°N, 116.8495°W)
Time: 05:42:00
(UTC-07:00)

Tiangong - Pass Details

Date: 22 February 2026
Orbit: 381 x 391 km, 41.5° (Epoch: 8 March)

Event Time Altitude Azimuth Distance (km) Brightness Sun altitude
Rises 19:25:34 0° 282° (WNW) 2,245 3.2 -23.1°
Reaches altitude 10° 19:28:07 10° 260° (W) 1,388 1.7 -23.6°
Maximum altitude 19:30:13 17° 218° (SW) 1,063 0.4 -24.0°
Enters shadow 19:30:18 17° 216° (SW) 1,063 0.4 -24.0°
